Location: Madingley
(52.2167°N, 0.0500°E)
Time: 04:47:34
(UTC+00:00)

Cosmos 1980 - Pass Details

Date: 15 May 2026
Orbit: 838 x 845 km, 71.0° (Epoch: 6 June)

Event Time Altitude Azimuth Distance (km) Brightness Sun altitude
Rises 22:39:09 0° 330° (NNW) 3,407 8.5 -16.8°
Reaches altitude 10° 22:41:42 10° 335° (NNW) 2,470 7.4 -16.9°
Maximum altitude 22:47:12 50° 51° (NE) 1,068 4.3 -17.2°
Enters shadow 22:51:12 18° 121° (ESE) 1,939 5.2 -17.3°
